Terminal Aerodrome Forecast
Issued by NWS El Paso, TX

Home | Current Version | Previous Version | Text Only | Print | Product List | Glossary On
Versions: 1 2 3 4 5 6 7 8 9 10 11 12 13 14
000
FTUS44 KEPZ 181510 AAA
TAFELP
TAF AMD
KELP 181510Z 1815/1912 02013G20KT P6SM SCT250
     FM182000 05007KT P6SM FEW250
     FM190200 06006KT P6SM FEW250=

USA.gov is the U.S. government's official web portal to all federal, state and local government web resources and services.